Regional Weather Roundup
Issued by NWS

Home | Current Version | Previous Version | Text Only | Print | Product List | Glossary On
Versions: 1 2 3 4 5 6 7 8 9 10 11 12 13 14 15 16 17 18 19 20 21 22 23 24 25 26 27 28 29 30 31 32 33 34 35 36 37 38 39 40 41 42 43 44 45 46 47 48 49 50
000
ASUS43 KMPX 202110
RWRMN
WEATHER ROUNDUP FOR MINNESOTA
NATIONAL WEATHER SERVICE TWIN CITIES/CHANHASSEN MN
400 PM CDT THU JUL 20 2017


NOTE: "FAIR" INDICATES FEW OR NO CLOUDS BELOW 12,000 FEET WITH NO
SIGNIFICANT WEATHER AND/OR OBSTRUCTIONS TO VISIBILITY. N/A MEANS
CURRENT SKY AND/OR WEATHER CONDITIONS ARE NOT AVAILABLE.

MNZ060>063-068>070-202200-
   Twin Cities Metro

CITY           SKY/WX    TMP DP  RH WIND       PRES   REMARKS
TWIN CITIES    CLOUDY    88  63  43 SW6       30.02S
ST PAUL        CLOUDY    86  65  49 VRB5      30.01F
CRYSTAL        SUNNY     86  61  42 W9        30.01S
BLAINE         PTSUNNY   88  63  42 SW8       30.02S
LAKEVILLE      CLOUDY    84  72  65 NW3       30.03S
EDEN PRAIRIE   CLOUDY    87  68  52 W6        30.01F HX  90
SOUTH ST PAUL  CLOUDY    86  67  53 W6        30.01S
LAKE ELMO      FAIR      84  70  61 SW6       30.03S
$$
MNZ001>005-007-008-013>017-022>024-027-028-202200-
   Northwest Minnesota

CITY           SKY/WX    TMP DP  RH WIND       PRES   REMARKS
BEMIDJI        SUNNY     82  55  39 SW7       30.00F
HALLOCK        SUNNY     79  55  44 SW5       29.98F
ROSEAU         SUNNY     77  61  57 S5        29.99F
WARROAD        CLOUDY    77  61  57 W8        29.99S
THIEF RVR FALL SUNNY     79  56  45 CALM      30.00F
CROOKSTON      SUNNY     82  61  47 CALM      29.97F
FOSSTON        SUNNY     82  57  42 CALM      30.00F
DETROIT LAKES  SUNNY     84  54  34 SW5       30.02F
MOORHEAD       SUNNY     84  63  48 S7        29.99F
PARK RAPIDS    SUNNY     90  54  29 W8        30.00F
MAHNOMEN       FAIR      83  60  45 S6        30.00F
$$
MNZ006-009>011-018-025>026-202200-
   North Central Minnesota

CITY           SKY/WX    TMP DP  RH WIND       PRES   REMARKS
BAUDETTE       SUNNY     75  50  41 NW6       29.99F
FLAG ISLAND    SUNNY     73  54  49 S6        29.97F
INTL FALLS     SUNNY     78  52  40 NW7       29.97F
WASKISH        MOSUNNY   81  61  50 W9        29.99S
BIG FORK       SUNNY     82  59  44 CALM      29.99F
LONGVILLE      SUNNY     82  57  42 CALM      30.02S
GRAND RAPIDS   SUNNY     81  60  48 VRB7      30.02F
CRANE LAKE     SUNNY     75  54  46 NW5       29.99F
ORR            SUNNY     81  48  32 NW7       29.97S
COOK           SUNNY     81  55  41 W9        30.00S
WALKER         FAIR      82  56  40 E5        30.00F
$$
MNZ012-019>021-037-202200-
   Northeast Minnesota

CITY           SKY/WX    TMP DP  RH WIND       PRES   REMARKS
DULUTH         MOSUNNY   84  61  45 W9        30.00R
ELY            SUNNY     79  52  38 W9        29.98S
HIBBING        SUNNY     80  56  43 VRB3      30.00S
EVELETH        SUNNY     81  43  26 W7        30.02R
DULUTH HARBOR  SUNNY     86  64  48 W8        29.96S
TWO HARBORS    SUNNY     88  63  42 NW3       29.96R
SILVER BAY     SUNNY     84  55  37 W3        29.95R
GRAND MARAIS     N/A     61  57  87 SW9       29.92F
G MARAIS ARPRT SUNNY     75  54  46 W3        29.99S
$$
MNZ029>031-032-039>041-046>048-054>057-064-202200-
   West Central Minnesota

CITY           SKY/WX    TMP DP  RH WIND       PRES   REMARKS
FERGUS FALLS   SUNNY     84  66  54 SW8       29.99F
WHEATON        SUNNY     84  64  51 S7        30.01F
MORRIS         SUNNY     88  64  45 S10       30.01F
ALEXANDRIA     MOSUNNY   84  67  56 SW9       30.04F
ELBOW LAKE     FAIR      85  72  65 SW8       30.02F HAZE    HX  90
WADENA         SUNNY     84  63  48 SW6       30.02S
GLENWOOD       SUNNY     86  68  54 SW7       30.05S
APPLETON       SUNNY     86  66  51 SE7       30.01F
BENSON         SUNNY     84  68  58 SW7       30.04F
ORTONVILLE     SUNNY     84  66  54 SE6       30.02F
MADISON        SUNNY     88  66  48 E7        30.02F HX  90
WILLMAR        FAIR      84  72  65 CALM      30.05S
$$
MNZ033>034-036-042>043-049>051-058-059-202200-
   Central Minnesota

CITY           SKY/WX    TMP DP  RH WIND       PRES   REMARKS
ST CLOUD       SUNNY     85  70  60 S12       30.02S
SAUK CENTRE    FAIR      85  65  51 SW8       30.04S
PAYNESVILLE    SUNNY     84  69  58 S7        30.05F
AITKIN         SUNNY     84  57  39 NW3       30.01S
PINE RIVER     SUNNY     84  61  45 SW8       30.04S
BRAINERD       SUNNY     84  63  49 W8        30.02F
STAPLES        MOSUNNY   84  63  48 SW6       30.02F
LONG PRAIRIE   FAIR      82  64  54 S6        30.04F
LITTLE FALLS   SUNNY     84  61  45 SW6       30.03S
LITCHFIELD     SUNNY     86  72  62 NW3       30.04S HX  92
BUFFALO        SUNNY     84  67  56 W5        30.04S
MAPLE LAKE     SUNNY     85  71  62 SW3       30.04F
HUTCHINSON     SUNNY     84  72  65 SW3       30.05S HX  90
$$
MNZ037-044-045-052-053-202200-
   East Central Minnesota

CITY           SKY/WX    TMP DP  RH WIND       PRES   REMARKS
PRINCETON      SUNNY     90  66  45 SW6       30.02S HX  92
MORA           SUNNY     82  61  47 W6        30.03S
CAMBRIDGE      SUNNY     88  68  51 SW5       30.00S HX  91
RUSH CITY      SUNNY     85  62  46 W6        30.02S HAZE
MOOSE LAKE     SUNNY     82  61  47 SW3       29.99S
HINCKLEY       FAIR      84  68  58 SW7       30.01S
CLOQUET        SUNNY     84  50  30 W10G16    30.00S
MCGREGOR       SUNNY     82  61  47 W7        30.02S
$$
MNZ071>073-080-081-089-090-097-098-202200-
   Southwest Minnesota

CITY           SKY/WX    TMP DP  RH WIND       PRES   REMARKS
MONTEVIDEO     SUNNY     90  66  45 S6        30.03F HX  92
GRANITE FALLS  SUNNY     86  68  54 SE5       30.05F HX  90
CANBY          SUNNY     87  65  46 CALM      30.03F
MARSHALL       CLOUDY    86  68  54 E9        30.03F
REDWOOD FALLS  CLOUDY    84  66  54 CALM      30.03S
OLIVIA         CLOUDY    82  68  61 S3        30.04S
PIPESTONE      MOSUNNY   86  68  54 SE7       30.04S
WINDOM         MOSUNNY   84  66  54 N5        30.04F
WORTHINGTON    CLOUDY    85  70  60 NE10      30.04F
JACKSON        CLOUDY    84  72  65 CALM      30.04F
TRACY          CLOUDY    85  70  60 E5        30.04F HX  90
SLAYTON        CLOUDY    84  64  50 E7        30.06S
$$
MNZ065>067-074>077-082>085-091>093-202200-
   South Central Minnesota

CITY           SKY/WX    TMP DP  RH WIND       PRES   REMARKS
MANKATO        CLOUDY    83  71  67 CALM      30.04S
NEW ULM        SUNNY     82  70  65 CALM      30.03S
ST JAMES       MOSUNNY   82  70  65 NE5       30.04S
FAIRMONT       PTSUNNY   85  76  74 N8        30.02F HX  94
GLENCOE        SUNNY     85  72  66 CALM      30.03S HX  90
FARIBAULT      MOSUNNY   84  72  65 CALM      30.04S
OWATONNA       PTSUNNY   84  72  65 NW3       30.04S
WASECA         PTSUNNY   82  70  65 N5        30.04F
ALBERT LEA     MOSUNNY   82  70  65 NE5       30.03S
$$
MNZ078>079-086>088-094>096-202200-
   Southeast Minnesota

CITY           SKY/WX    TMP DP  RH WIND       PRES   REMARKS
ROCHESTER      PTSUNNY   83  73  72 N5        30.04R
RED WING       CLOUDY    84  64  51 NW5       30.01R
STANTON        CLOUDY    84  69  59 CALM      30.02R
DODGE CENTER   CLOUDY    82  70  65 N3        30.05S
WINONA         CLOUDY    81  70  69 NW5       30.00S
AUSTIN         CLOUDY    86  70  58 NE5       30.03R HX  90
PRESTON        CLOUDY    82  70  66 N6        30.03R
$$
ABBREVIATIONS USED IN REMARKS
   TC - TEMPERATURES IN CELSIUS
  WCI - WIND CHILL INDEX
   HX - HEAT INDEX
  VSB - VISIBILITY
$$




USA.gov is the U.S. government's official web portal to all federal, state and local government web resources and services.